Time,TemperatureF,DewpointF,PressureIn,WindDirection,WindDirectionDegrees,WindSpeedMPH,WindSpeedGustMPH,Humidity,HourlyPrecipIn,Conditions,Clouds,dailyrainin,SoftwareType,DateUTC
2013-05-12 00:01:00,48.7,47.0,29.68,WNW,298,6.0,9.0,94,0.00,,---,0.00,VWS V14.01,2013-05-12 04:01:00,
2013-05-12 00:02:00,48.7,47.0,29.68,WNW,298,6.0,9.0,94,0.00,,---,0.00,VWS V14.01,2013-05-12 04:02:00,
2013-05-12 00:03:00,48.7,47.0,29.68,NW,304,5.0,8.0,94,0.00,,---,0.00,VWS V14.01,2013-05-12 04:03:00,
2013-05-12 00:08:00,48.7,47.0,29.67,NW,314,5.0,8.0,94,0.00,,---,0.00,VWS V14.01,2013-05-12 04:08:00,
2013-05-12 00:10:00,48.6,47.0,29.67,NW,326,7.0,9.0,94,0.00,,---,0.00,VWS V14.01,2013-05-12 04:10:00,
2013-05-12 00:15:00,48.5,46.6,29.67,NW,319,5.0,9.0,93,0.00,,---,0.00,VWS V14.01,2013-05-12 04:15:00,
2013-05-12 00:20:00,48.4,46.5,29.67,NW,309,4.0,12.0,93,0.00,,---,0.00,VWS V14.01,2013-05-12 04:20:00,
2013-05-12 00:25:00,48.3,46.4,29.67,NW,318,3.0,9.0,93,0.00,,---,0.00,VWS V14.01,2013-05-12 04:25:00,
2013-05-12 00:31:00,48.2,46.3,29.67,NW,309,7.0,10.0,93,0.00,,---,0.00,VWS V14.01,2013-05-12 04:31:00,
2013-05-12 00:36:00,48.1,46.2,29.67,NW,311,5.0,11.0,93,0.00,,---,0.00,VWS V14.01,2013-05-12 04:36:00,
2013-05-12 00:41:00,48.0,46.1,29.68,WNW,300,6.0,13.0,93,0.00,,---,0.00,VWS V14.01,2013-05-12 04:41:00,
2013-05-12 00:46:00,47.9,46.3,29.68,WNW,284,6.0,10.0,94,0.00,,---,0.00,VWS V14.01,2013-05-12 04:46:00,
2013-05-12 00:51:00,47.8,46.2,29.67,NW,311,4.0,10.0,94,0.00,,---,0.00,VWS V14.01,2013-05-12 04:51:00,
2013-05-12 00:56:00,47.7,46.1,29.67,NNW,332,8.0,12.0,94,0.00,,---,0.00,VWS V14.01,2013-05-12 04:56:00,
2013-05-12 01:01:00,47.6,46.0,29.67,WNW,287,6.0,12.0,94,0.00,,---,0.00,VWS V14.01,2013-05-12 05:01:00,
2013-05-12 01:06:00,47.5,45.9,29.67,WNW,295,13.0,13.0,94,0.00,,---,0.00,VWS V14.01,2013-05-12 05:06:00,
2013-05-12 01:11:00,47.3,45.7,29.67,WNW,291,7.0,12.0,94,0.00,,---,0.00,VWS V14.01,2013-05-12 05:11:00,
2013-05-12 01:16:00,47.3,45.7,29.67,NW,307,3.0,10.0,94,0.00,,---,0.00,VWS V14.01,2013-05-12 05:16:00,
2013-05-12 01:21:00,47.2,45.6,29.67,NW,322,5.0,7.0,94,0.00,,---,0.00,VWS V14.01,2013-05-12 05:21:00,
2013-05-12 01:26:00,47.2,45.6,29.68,WNW,294,6.0,7.0,94,0.00,,---,0.00,VWS V14.01,2013-05-12 05:26:00,
2013-05-12 01:31:00,47.1,45.5,29.68,WNW,297,4.0,9.0,94,0.00,,---,0.00,VWS V14.01,2013-05-12 05:31:00,
2013-05-12 01:36:00,47.1,45.5,29.68,NW,305,4.0,9.0,94,0.00,,---,0.00,VWS V14.01,2013-05-12 05:36:00,
2013-05-12 01:41:00,47.0,45.4,29.67,WNW,298,8.0,10.0,94,0.00,,---,0.00,VWS V14.01,2013-05-12 05:41:00,
2013-05-12 01:46:00,46.9,45.3,29.67,WNW,301,7.0,10.0,94,0.00,,---,0.00,VWS V14.01,2013-05-12 05:46:00,
2013-05-12 01:51:00,46.9,45.3,29.67,WNW,287,3.0,10.0,94,0.00,,---,0.00,VWS V14.01,2013-05-12 05:51:00,
2013-05-12 01:56:00,46.8,45.2,29.67,NNW,328,6.0,8.0,94,0.00,,---,0.00,VWS V14.01,2013-05-12 05:56:00,
2013-05-12 02:01:00,46.7,45.1,29.67,WNW,291,5.0,8.0,94,0.00,,---,0.00,VWS V14.01,2013-05-12 06:01:00,
2013-05-12 02:06:00,46.7,45.1,29.67,WNW,292,4.0,7.0,94,0.00,,---,0.00,VWS V14.01,2013-05-12 06:06:00,
2013-05-12 02:11:00,46.7,45.1,29.67,NW,314,3.0,6.0,94,0.00,,---,0.00,VWS V14.01,2013-05-12 06:11:00,
2013-05-12 02:16:00,46.5,44.9,29.67,WNW,300,5.0,6.0,94,0.00,,---,0.00,VWS V14.01,2013-05-12 06:16:00,
2013-05-12 02:21:00,46.5,44.9,29.67,WNW,291,3.0,8.0,94,0.00,,---,0.00,VWS V14.01,2013-05-12 06:21:00,
2013-05-12 02:26:00,46.4,44.8,29.67,NW,314,3.0,6.0,94,0.00,,---,0.00,VWS V14.01,2013-05-12 06:26:00,
2013-05-12 02:31:00,46.4,44.8,29.68,WNW,301,1.0,4.0,94,0.00,,---,0.00,VWS V14.01,2013-05-12 06:31:00,
2013-05-12 02:36:00,46.4,45.0,29.67,NW,318,2.0,4.0,95,0.00,,---,0.00,VWS V14.01,2013-05-12 06:36:00,
2013-05-12 02:41:00,46.3,45.0,29.67,NNW,328,5.0,5.0,95,0.00,,---,0.00,VWS V14.01,2013-05-12 06:41:00,
2013-05-12 02:46:00,46.2,44.8,29.67,NW,305,6.0,7.0,95,0.00,,---,0.00,VWS V14.01,2013-05-12 06:46:00,
2013-05-12 02:51:00,46.2,44.8,29.67,NW,308,4.0,7.0,95,0.00,,---,0.00,VWS V14.01,2013-05-12 06:51:00,
2013-05-12 02:56:00,46.2,44.8,29.67,WNW,294,6.0,8.0,95,0.00,,---,0.00,VWS V14.01,2013-05-12 06:56:00,
2013-05-12 03:01:00,46.2,44.8,29.67,WNW,297,6.0,7.0,95,0.00,,---,0.00,VWS V14.01,2013-05-12 07:01:00,
2013-05-12 03:06:00,46.2,44.8,29.67,WNW,294,3.0,7.0,95,0.00,,---,0.00,VWS V14.01,2013-05-12 07:06:00,
2013-05-12 03:11:00,46.1,44.8,29.67,WNW,300,4.0,8.0,95,0.00,,---,0.00,VWS V14.01,2013-05-12 07:11:00,
2013-05-12 03:16:00,46.1,44.8,29.67,NW,310,3.0,8.0,95,0.00,,---,0.00,VWS V14.01,2013-05-12 07:16:00,
2013-05-12 03:21:00,46.1,44.8,29.66,NW,322,9.0,10.0,95,0.00,,---,0.00,VWS V14.01,2013-05-12 07:21:00,
2013-05-12 03:27:00,46.0,44.7,29.65,NW,316,4.0,9.0,95,0.00,,---,0.00,VWS V14.01,2013-05-12 07:27:00,
2013-05-12 03:32:00,46.0,44.7,29.65,NW,319,7.0,12.0,95,0.00,,---,0.00,VWS V14.01,2013-05-12 07:32:00,
2013-05-12 03:37:00,45.9,44.5,29.65,NW,307,6.0,12.0,95,0.00,,---,0.00,VWS V14.01,2013-05-12 07:37:00,
2013-05-12 03:42:00,45.9,44.5,29.65,NW,318,7.0,12.0,95,0.00,,---,0.00,VWS V14.01,2013-05-12 07:42:00,
2013-05-12 03:47:00,45.8,44.5,29.65,WNW,286,10.0,11.0,95,0.00,,---,0.00,VWS V14.01,2013-05-12 07:47:00,
2013-05-12 03:52:00,45.8,44.5,29.65,NW,316,4.0,11.0,95,0.00,,---,0.00,VWS V14.01,2013-05-12 07:52:00,
2013-05-12 03:57:00,45.7,44.3,29.64,NW,305,12.0,12.0,95,0.00,,---,0.00,VWS V14.01,2013-05-12 07:57:00,
2013-05-12 04:02:00,45.7,44.3,29.65,WNW,296,10.0,13.0,95,0.00,,---,0.00,VWS V14.01,2013-05-12 08:02:00,
2013-05-12 04:07:00,45.7,44.3,29.66,WNW,301,4.0,12.0,95,0.00,,---,0.00,VWS V14.01,2013-05-12 08:07:00,
2013-05-12 04:12:00,45.7,44.3,29.67,WNW,295,6.0,10.0,95,0.00,,---,0.00,VWS V14.01,2013-05-12 08:12:00,
2013-05-12 04:17:00,45.7,44.3,29.66,WNW,295,6.0,10.0,95,0.00,,---,0.00,VWS V14.01,2013-05-12 08:17:00,
2013-05-12 04:22:00,45.7,44.3,29.66,WNW,298,8.0,12.0,95,0.00,,---,0.00,VWS V14.01,2013-05-12 08:22:00,
2013-05-12 04:27:00,45.7,44.1,29.66,WNW,294,4.0,13.0,94,0.00,,---,0.00,VWS V14.01,2013-05-12 08:27:00,
2013-05-12 04:32:00,45.7,44.1,29.66,WNW,295,3.0,10.0,94,0.00,,---,0.00,VWS V14.01,2013-05-12 08:32:00,
2013-05-12 04:37:00,45.7,44.1,29.66,NW,314,2.0,8.0,94,0.00,,---,0.00,VWS V14.01,2013-05-12 08:37:00,
2013-05-12 04:42:00,45.7,44.1,29.66,NW,318,0.0,6.0,94,0.00,,---,0.00,VWS V14.01,2013-05-12 08:42:00,
2013-05-12 04:47:00,45.7,44.1,29.66,NW,316,6.0,7.0,94,0.00,,---,0.00,VWS V14.01,2013-05-12 08:47:00,
2013-05-12 04:52:00,45.6,44.0,29.66,WNW,302,5.0,8.0,94,0.00,,---,0.00,VWS V14.01,2013-05-12 08:52:00,
2013-05-12 04:57:00,45.5,43.9,29.66,NW,314,7.0,8.0,94,0.00,,---,0.00,VWS V14.01,2013-05-12 08:57:00,
2013-05-12 05:02:00,45.4,43.8,29.66,NW,305,3.0,7.0,94,0.00,,---,0.00,VWS V14.01,2013-05-12 09:02:00,
2013-05-12 05:07:00,45.3,43.7,29.66,NW,305,6.0,9.0,94,0.00,,---,0.00,VWS V14.01,2013-05-12 09:07:00,
2013-05-12 05:12:00,45.2,43.9,29.66,WNW,300,3.0,8.0,95,0.00,,---,0.00,VWS V14.01,2013-05-12 09:12:00,
2013-05-12 05:17:00,45.0,43.7,29.66,NNW,332,6.0,7.0,95,0.00,,---,0.00,VWS V14.01,2013-05-12 09:17:00,
2013-05-12 05:22:00,45.0,43.7,29.66,NW,314,4.0,8.0,95,0.00,,---,0.00,VWS V14.01,2013-05-12 09:22:00,
2013-05-12 05:27:00,45.1,43.8,29.66,NW,315,4.0,8.0,95,0.00,,---,0.00,VWS V14.01,2013-05-12 09:27:00,
2013-05-12 05:32:00,45.2,43.9,29.66,NW,315,4.0,7.0,95,0.00,,---,0.00,VWS V14.01,2013-05-12 09:32:00,
2013-05-12 05:37:00,45.3,44.0,29.67,NW,312,6.0,9.0,95,0.00,,---,0.00,VWS V14.01,2013-05-12 09:37:00,
2013-05-12 05:42:00,45.3,44.0,29.66,NW,310,7.0,10.0,95,0.00,,---,0.00,VWS V14.01,2013-05-12 09:42:00,
2013-05-12 05:47:00,45.4,44.0,29.67,WNW,295,4.0,7.0,95,0.00,,---,0.00,VWS V14.01,2013-05-12 09:47:00,
2013-05-12 05:52:00,45.4,44.0,29.66,WNW,298,3.0,6.0,95,0.00,,---,0.00,VWS V14.01,2013-05-12 09:52:00,
2013-05-12 05:57:00,45.4,44.0,29.66,NW,322,2.0,5.0,95,0.00,,---,0.00,VWS V14.01,2013-05-12 09:57:00,
2013-05-12 06:02:00,45.4,44.0,29.66,NW,318,2.0,6.0,95,0.00,,---,0.00,VWS V14.01,2013-05-12 10:02:00,
2013-05-12 06:07:00,45.4,44.0,29.66,NW,314,3.0,6.0,95,0.00,,---,0.00,VWS V14.01,2013-05-12 10:07:00,
2013-05-12 06:12:00,45.4,44.0,29.67,NW,323,6.0,7.0,95,0.00,,---,0.00,VWS V14.01,2013-05-12 10:12:00,
2013-05-12 06:17:00,45.5,44.2,29.67,NW,306,4.0,5.0,95,0.00,,---,0.00,VWS V14.01,2013-05-12 10:17:00,
2013-05-12 06:22:00,45.5,44.2,29.67,WNW,295,5.0,5.0,95,0.00,,---,0.00,VWS V14.01,2013-05-12 10:22:00,
2013-05-12 06:27:00,45.5,44.2,29.67,WNW,300,3.0,6.0,95,0.00,,---,0.00,VWS V14.01,2013-05-12 10:27:00,
2013-05-12 06:32:00,45.5,44.2,29.67,NW,324,2.0,4.0,95,0.00,,---,0.00,VWS V14.01,2013-05-12 10:32:00,
2013-05-12 06:37:00,45.6,44.2,29.68,WNW,287,1.0,3.0,95,0.00,,---,0.00,VWS V14.01,2013-05-12 10:37:00,
2013-05-12 06:42:00,45.6,44.2,29.68,WNW,282,0.0,2.0,95,0.00,,---,0.00,VWS V14.01,2013-05-12 10:42:00,
2013-05-12 06:47:00,45.7,44.3,29.68,WNW,282,1.0,2.0,95,0.00,,---,0.00,VWS V14.01,2013-05-12 10:47:00,
2013-05-12 06:52:00,45.7,44.3,29.67,West,280,1.0,2.0,95,0.00,,---,0.00,VWS V14.01,2013-05-12 10:52:00,
2013-05-12 06:57:00,45.5,44.2,29.67,West,280,1.0,1.0,95,0.00,,---,0.00,VWS V14.01,2013-05-12 10:57:00,
2013-05-12 07:02:00,45.4,44.0,29.68,West,280,0.0,1.0,95,0.00,,---,0.00,VWS V14.01,2013-05-12 11:02:00,
2013-05-12 07:07:00,45.3,44.0,29.68,WNW,284,0.0,2.0,95,0.00,,---,0.00,VWS V14.01,2013-05-12 11:07:00,
2013-05-12 07:12:00,45.3,44.0,29.68,WNW,283,0.0,1.0,95,0.00,,---,0.00,VWS V14.01,2013-05-12 11:12:00,
2013-05-12 07:17:00,45.3,44.0,29.67,WNW,283,0.0,0.0,95,0.00,,---,0.00,VWS V14.01,2013-05-12 11:17:00,
2013-05-12 07:22:00,45.4,44.0,29.67,WNW,285,0.0,1.0,95,0.00,,---,0.00,VWS V14.01,2013-05-12 11:22:00,
2013-05-12 07:27:00,45.5,44.2,29.67,WNW,285,0.0,0.0,95,0.00,,---,0.00,VWS V14.01,2013-05-12 11:27:00,
2013-05-12 07:32:00,45.7,44.3,29.67,WNW,285,0.0,1.0,95,0.00,,---,0.00,VWS V14.01,2013-05-12 11:32:00,
2013-05-12 07:37:00,46.5,45.2,29.66,WNW,285,0.0,1.0,95,0.00,,---,0.00,VWS V14.01,2013-05-12 11:37:00,
2013-05-12 07:42:00,47.0,45.4,29.67,West,277,1.0,3.0,94,0.00,,---,0.00,VWS V14.01,2013-05-12 11:42:00,
2013-05-12 07:47:00,47.7,45.5,29.66,WNW,288,1.0,2.0,92,0.00,,---,0.00,VWS V14.01,2013-05-12 11:47:00,
2013-05-12 07:52:00,48.3,45.8,29.66,WNW,300,3.0,5.0,91,0.00,,---,0.00,VWS V14.01,2013-05-12 11:52:00,
2013-05-12 07:57:00,48.9,45.8,29.66,West,269,6.0,7.0,89,0.00,,---,0.00,VWS V14.01,2013-05-12 11:57:00,
2013-05-12 08:02:00,49.4,45.1,29.66,WNW,295,3.0,10.0,85,0.00,,---,0.00,VWS V14.01,2013-05-12 12:02:00,
2013-05-12 08:07:00,49.6,45.0,29.66,West,278,3.0,10.0,84,0.00,,---,0.00,VWS V14.01,2013-05-12 12:07:00,
2013-05-12 08:12:00,50.0,45.0,29.66,WNW,296,8.0,9.0,83,0.00,,---,0.00,VWS V14.01,2013-05-12 12:12:00,
2013-05-12 08:17:00,50.5,45.2,29.67,West,266,7.0,8.0,82,0.00,,---,0.00,VWS V14.01,2013-05-12 12:17:00,
2013-05-12 08:22:00,50.8,45.2,29.66,WNW,285,7.0,10.0,81,0.00,,---,0.00,VWS V14.01,2013-05-12 12:22:00,
2013-05-12 08:27:00,51.3,45.0,29.66,WNW,285,7.0,11.0,79,0.00,,---,0.00,VWS V14.01,2013-05-12 12:27:00,
2013-05-12 08:32:00,51.3,45.0,29.66,WNW,283,5.0,9.0,79,0.00,,---,0.00,VWS V14.01,2013-05-12 12:32:00,
2013-05-12 08:37:00,51.4,45.5,29.66,WNW,291,5.0,6.0,80,0.00,,---,0.00,VWS V14.01,2013-05-12 12:37:00,
2013-05-12 08:42:00,51.3,44.3,29.66,West,280,8.0,13.0,77,0.00,,---,0.00,VWS V14.01,2013-05-12 12:42:00,
2013-05-12 08:47:00,51.2,44.6,29.66,West,274,6.0,10.0,78,0.00,,---,0.00,VWS V14.01,2013-05-12 12:47:00,
2013-05-12 08:52:00,51.0,44.0,29.66,West,267,8.0,11.0,77,0.00,,---,0.00,VWS V14.01,2013-05-12 12:52:00,
2013-05-12 08:57:00,51.3,44.7,29.66,West,260,6.0,9.0,78,0.00,,---,0.00,VWS V14.01,2013-05-12 12:57:00,
2013-05-12 09:02:00,51.6,45.0,29.66,WNW,283,9.0,12.0,78,0.00,,---,0.00,VWS V14.01,2013-05-12 13:02:00,
2013-05-12 09:07:00,51.8,44.8,29.66,West,260,6.0,10.0,77,0.00,,---,0.00,VWS V14.01,2013-05-12 13:07:00,
2013-05-12 09:12:00,52.2,45.9,29.65,WNW,291,8.0,13.0,79,0.00,,---,0.00,VWS V14.01,2013-05-12 13:12:00,
2013-05-12 09:17:00,52.4,45.8,29.65,NW,311,6.0,13.0,78,0.00,,---,0.00,VWS V14.01,2013-05-12 13:17:00,
2013-05-12 09:22:00,52.5,45.5,29.65,WNW,285,11.0,11.0,77,0.00,,---,0.00,VWS V14.01,2013-05-12 13:22:00,
2013-05-12 09:27:00,52.6,45.6,29.65,NW,316,7.0,14.0,77,0.00,,---,0.00,VWS V14.01,2013-05-12 13:27:00,
2013-05-12 09:32:00,52.1,45.5,29.66,NW,305,8.0,12.0,78,0.00,,---,0.00,VWS V14.01,2013-05-12 13:32:00,
2013-05-12 09:37:00,51.5,44.9,29.66,West,278,5.0,13.0,78,0.00,,---,0.00,VWS V14.01,2013-05-12 13:37:00,
2013-05-12 09:42:00,51.3,44.7,29.66,West,266,10.0,10.0,78,0.00,,---,0.00,VWS V14.01,2013-05-12 13:42:00,
2013-05-12 09:47:00,51.2,44.2,29.65,WNW,293,9.0,12.0,77,0.00,,---,0.00,VWS V14.01,2013-05-12 13:47:00,
2013-05-12 09:52:00,51.4,44.8,29.65,WNW,285,7.0,11.0,78,0.00,,---,0.00,VWS V14.01,2013-05-12 13:52:00,
2013-05-12 09:57:00,51.4,44.1,29.65,WNW,295,7.0,12.0,76,0.00,,---,0.00,VWS V14.01,2013-05-12 13:57:00,
2013-05-12 10:02:00,51.6,44.6,29.65,West,278,8.0,14.0,77,0.00,,---,0.00,VWS V14.01,2013-05-12 14:02:00,
2013-05-12 10:07:00,52.1,44.1,29.65,WNW,297,10.0,15.0,74,0.00,,---,0.00,VWS V14.01,2013-05-12 14:07:00,
2013-05-12 10:12:00,50.3,44.0,29.65,WNW,290,14.0,26.0,79,0.00,,---,0.00,VWS V14.01,2013-05-12 14:12:00,
2013-05-12 10:17:00,46.8,42.2,29.66,NW,308,12.0,24.0,84,0.00,,---,0.00,VWS V14.01,2013-05-12 14:17:00,
2013-05-12 10:22:00,45.1,41.2,29.66,WNW,300,16.0,16.0,86,0.00,,---,0.00,VWS V14.01,2013-05-12 14:22:00,
2013-05-12 10:27:00,43.8,40.5,29.67,NW,309,10.0,20.0,88,0.00,,---,0.00,VWS V14.01,2013-05-12 14:27:00,
2013-05-12 10:32:00,42.8,40.1,29.67,NW,316,17.0,23.0,90,0.00,,---,0.00,VWS V14.01,2013-05-12 14:32:00,
2013-05-12 10:37:00,42.2,39.8,29.68,NNW,328,6.0,20.0,91,0.00,,---,0.00,VWS V14.01,2013-05-12 14:37:00,
2013-05-12 10:42:00,41.9,39.8,29.67,NW,317,8.0,19.0,92,0.00,,---,0.00,VWS V14.01,2013-05-12 14:42:00,
2013-05-12 10:47:00,41.8,39.7,29.67,NW,310,12.0,17.0,92,0.00,,---,0.00,VWS V14.01,2013-05-12 14:47:00,
2013-05-12 10:52:00,41.9,39.8,29.67,WNW,302,13.0,17.0,92,0.00,,---,0.00,VWS V14.01,2013-05-12 14:52:00,
2013-05-12 10:57:00,41.9,39.5,29.67,WNW,302,13.0,19.0,91,0.00,,---,0.00,VWS V14.01,2013-05-12 14:57:00,
2013-05-12 11:02:00,41.2,38.8,29.67,WNW,290,15.0,24.0,91,0.00,,---,0.00,VWS V14.01,2013-05-12 15:02:00,
2013-05-12 11:07:00,40.5,38.6,29.68,NW,308,15.0,19.0,93,0.00,,---,0.00,VWS V14.01,2013-05-12 15:07:00,
2013-05-12 11:12:00,39.6,37.8,29.68,WNW,298,10.0,22.0,93,0.00,,---,0.00,VWS V14.01,2013-05-12 15:12:00,
2013-05-12 11:17:00,39.3,38.0,29.68,NW,305,11.0,17.0,95,0.00,,---,0.00,VWS V14.01,2013-05-12 15:17:00,
2013-05-12 11:22:00,39.5,38.2,29.68,NW,305,15.0,21.0,95,0.00,,---,0.00,VWS V14.01,2013-05-12 15:22:00,
2013-05-12 11:27:00,39.6,38.3,29.68,NW,312,9.0,19.0,95,0.00,,---,0.00,VWS V14.01,2013-05-12 15:27:00,
2013-05-12 11:32:00,39.9,38.6,29.68,WNW,300,13.0,17.0,95,0.00,,---,0.00,VWS V14.01,2013-05-12 15:32:00,
2013-05-12 11:37:00,40.1,38.5,29.68,NW,321,15.0,21.0,94,0.00,,---,0.00,VWS V14.01,2013-05-12 15:37:00,
2013-05-12 11:42:00,40.5,38.9,29.68,NW,314,18.0,23.0,94,0.00,,---,0.00,VWS V14.01,2013-05-12 15:42:00,
2013-05-12 11:47:00,40.9,38.8,29.67,NNW,329,12.0,26.0,92,0.00,,---,0.00,VWS V14.01,2013-05-12 15:47:00,
2013-05-12 11:52:00,41.3,39.2,29.68,WNW,300,12.0,20.0,92,0.00,,---,0.00,VWS V14.01,2013-05-12 15:52:00,
2013-05-12 11:57:00,41.3,38.6,29.68,WNW,293,12.0,21.0,90,0.00,,---,0.00,VWS V14.01,2013-05-12 15:57:00,
2013-05-12 12:02:00,41.2,38.5,29.68,West,271,13.0,18.0,90,0.00,,---,0.00,VWS V14.01,2013-05-12 16:02:00,
2013-05-12 12:07:00,41.0,38.3,29.68,WNW,292,14.0,24.0,90,0.00,,---,0.00,VWS V14.01,2013-05-12 16:07:00,
2013-05-12 12:12:00,41.3,38.6,29.68,WNW,300,12.0,24.0,90,0.00,,---,0.00,VWS V14.01,2013-05-12 16:12:00,
2013-05-12 12:17:00,42.5,39.8,29.68,WNW,283,13.0,19.0,90,0.00,,---,0.00,VWS V14.01,2013-05-12 16:17:00,
2013-05-12 12:22:00,43.2,39.6,29.68,NW,314,15.0,24.0,87,0.00,,---,0.00,VWS V14.01,2013-05-12 16:22:00,
2013-05-12 12:27:00,43.9,39.7,29.68,West,276,11.0,24.0,85,0.00,,---,0.00,VWS V14.01,2013-05-12 16:27:00,
2013-05-12 12:32:00,43.6,38.5,29.68,WNW,288,17.0,28.0,82,0.00,,---,0.00,VWS V14.01,2013-05-12 16:32:00,
2013-05-12 12:37:00,43.9,39.1,29.68,WNW,288,21.0,23.0,83,0.00,,---,0.00,VWS V14.01,2013-05-12 16:37:00,
2013-05-12 12:42:00,44.4,38.9,29.68,NW,305,17.0,23.0,81,0.00,,---,0.00,VWS V14.01,2013-05-12 16:42:00,
2013-05-12 12:48:00,44.9,39.1,29.67,WNW,297,15.0,25.0,80,0.00,,---,0.00,VWS V14.01,2013-05-12 16:48:00,
2013-05-12 12:53:00,45.4,39.0,29.67,WNW,284,18.0,24.0,78,0.00,,---,0.00,VWS V14.01,2013-05-12 16:53:00,
2013-05-12 12:58:00,46.2,39.7,29.67,WNW,290,12.0,24.0,78,0.00,,---,0.00,VWS V14.01,2013-05-12 16:58:00,
2013-05-12 13:03:00,46.3,39.5,29.67,WNW,292,17.0,26.0,77,0.00,,---,0.00,VWS V14.01,2013-05-12 17:03:00,
2013-05-12 13:08:00,46.6,39.5,29.67,NW,308,18.0,26.0,76,0.00,,---,0.00,VWS V14.01,2013-05-12 17:08:00,
2013-05-12 13:13:00,47.1,38.5,29.67,WNW,302,15.0,26.0,72,0.00,,---,0.00,VWS V14.01,2013-05-12 17:13:00,
2013-05-12 13:18:00,47.7,38.8,29.67,NW,312,18.0,27.0,71,0.00,,---,0.00,VWS V14.01,2013-05-12 17:18:00,
2013-05-12 13:23:00,48.0,39.1,29.67,West,262,12.0,22.0,71,0.00,,---,0.00,VWS V14.01,2013-05-12 17:23:00,
2013-05-12 13:28:00,48.4,39.4,29.67,West,280,21.0,30.0,71,0.00,,---,0.00,VWS V14.01,2013-05-12 17:28:00,
2013-05-12 13:33:00,48.5,39.5,29.67,WNW,285,17.0,28.0,71,0.00,,---,0.00,VWS V14.01,2013-05-12 17:33:00,
2013-05-12 13:38:00,48.5,39.2,29.67,WNW,301,12.0,26.0,70,0.00,,---,0.00,VWS V14.01,2013-05-12 17:38:00,
2013-05-12 13:43:00,49.3,38.8,29.67,WNW,287,10.0,22.0,67,0.00,,---,0.00,VWS V14.01,2013-05-12 17:43:00,
2013-05-12 13:48:00,49.6,36.3,29.67,West,273,17.0,28.0,60,0.00,,---,0.00,VWS V14.01,2013-05-12 17:48:00,
2013-05-12 13:53:00,49.6,37.1,29.67,WNW,283,15.0,21.0,62,0.00,,---,0.00,VWS V14.01,2013-05-12 17:53:00,
2013-05-12 13:58:00,50.5,37.6,29.68,WNW,292,17.0,20.0,61,0.00,,---,0.00,VWS V14.01,2013-05-12 17:58:00,
2013-05-12 14:04:00,50.8,35.7,29.68,West,262,9.0,23.0,56,0.00,,---,0.00,VWS V14.01,2013-05-12 18:04:00,
2013-05-12 14:09:00,51.2,35.6,29.68,WNW,297,15.0,20.0,55,0.00,,---,0.00,VWS V14.01,2013-05-12 18:09:00,
2013-05-12 14:14:00,51.7,34.7,29.68,WNW,288,11.0,19.0,52,0.00,,---,0.00,VWS V14.01,2013-05-12 18:14:00,
2013-05-12 14:19:00,51.8,33.8,29.68,WNW,292,13.0,18.0,50,0.00,,---,0.00,VWS V14.01,2013-05-12 18:19:00,
2013-05-12 14:24:00,51.7,34.2,29.68,WNW,285,12.0,23.0,51,0.00,,---,0.00,VWS V14.01,2013-05-12 18:24:00,
2013-05-12 14:29:00,51.7,31.1,29.68,WNW,295,13.0,22.0,45,0.00,,---,0.00,VWS V14.01,2013-05-12 18:29:00,
2013-05-12 14:34:00,52.0,30.8,29.68,WSW,256,16.0,23.0,44,0.00,,---,0.00,VWS V14.01,2013-05-12 18:34:00,
2013-05-12 14:39:00,52.1,30.3,29.68,WNW,286,10.0,22.0,43,0.00,,---,0.00,VWS V14.01,2013-05-12 18:39:00,
2013-05-12 14:44:00,52.6,31.3,29.68,WNW,300,14.0,19.0,44,0.00,,---,0.00,VWS V14.01,2013-05-12 18:44:00,
2013-05-12 14:49:00,52.7,31.4,29.68,WNW,291,6.0,17.0,44,0.00,,---,0.00,VWS V14.01,2013-05-12 18:49:00,
2013-05-12 14:54:00,52.8,27.9,29.69,NW,304,11.0,22.0,38,0.00,,---,0.00,VWS V14.01,2013-05-12 18:54:00,
2013-05-12 14:59:00,52.6,27.7,29.68,WNW,286,14.0,23.0,38,0.00,,---,0.00,VWS V14.01,2013-05-12 18:59:00,
2013-05-12 15:04:00,52.5,28.9,29.69,WSW,246,15.0,19.0,40,0.00,,---,0.00,VWS V14.01,2013-05-12 19:04:00,
2013-05-12 15:09:00,52.5,30.7,29.69,WNW,302,15.0,24.0,43,0.00,,---,0.00,VWS V14.01,2013-05-12 19:09:00,
2013-05-12 15:14:00,52.9,28.0,29.69,NW,312,9.0,18.0,38,0.00,,---,0.00,VWS V14.01,2013-05-12 19:14:00,
2013-05-12 15:19:00,53.0,27.4,29.69,WNW,288,10.0,22.0,37,0.00,,---,0.00,VWS V14.01,2013-05-12 19:19:00,
2013-05-12 15:24:00,52.8,27.9,29.69,WSW,255,8.0,20.0,38,0.00,,---,0.00,VWS V14.01,2013-05-12 19:24:00,
2013-05-12 15:29:00,53.0,28.1,29.69,West,276,10.0,22.0,38,0.00,,---,0.00,VWS V14.01,2013-05-12 19:29:00,
2013-05-12 15:34:00,52.7,26.5,29.70,West,270,13.0,24.0,36,0.00,,---,0.00,VWS V14.01,2013-05-12 19:34:00,
2013-05-12 15:39:00,52.6,27.1,29.70,NW,304,9.0,25.0,37,0.00,,---,0.00,VWS V14.01,2013-05-12 19:39:00,
2013-05-12 15:44:00,51.9,25.8,29.70,WNW,294,14.0,27.0,36,0.00,,---,0.00,VWS V14.01,2013-05-12 19:44:00,
2013-05-12 15:49:00,52.0,27.2,29.70,WNW,298,9.0,20.0,38,0.00,,---,0.00,VWS V14.01,2013-05-12 19:49:00,
2013-05-12 15:54:00,51.8,28.9,29.70,WNW,295,13.0,20.0,41,0.00,,---,0.00,VWS V14.01,2013-05-12 19:54:00,
2013-05-12 15:59:00,51.7,28.8,29.70,NNW,328,14.0,22.0,41,0.00,,---,0.00,VWS V14.01,2013-05-12 19:59:00,
2013-05-12 16:04:00,51.5,28.6,29.70,WNW,285,10.0,20.0,41,0.00,,---,0.00,VWS V14.01,2013-05-12 20:04:00,
2013-05-12 16:09:00,51.8,27.6,29.70,SW,236,8.0,16.0,39,0.00,,---,0.00,VWS V14.01,2013-05-12 20:09:00,
2013-05-12 16:14:00,51.8,30.0,29.70,WNW,288,7.0,14.0,43,0.00,,---,0.00,VWS V14.01,2013-05-12 20:14:00,
2013-05-12 16:19:00,52.1,29.7,29.70,WSW,253,17.0,17.0,42,0.00,,---,0.00,VWS V14.01,2013-05-12 20:19:00,
2013-05-12 16:24:00,52.4,28.2,29.70,West,268,6.0,20.0,39,0.00,,---,0.00,VWS V14.01,2013-05-12 20:24:00,
2013-05-12 16:29:00,52.1,24.6,29.70,WNW,287,16.0,22.0,34,0.00,,---,0.00,VWS V14.01,2013-05-12 20:29:00,
2013-05-12 16:34:00,51.8,26.4,29.70,WNW,300,16.0,18.0,37,0.00,,---,0.00,VWS V14.01,2013-05-12 20:34:00,
2013-05-12 16:39:00,51.9,26.5,29.70,WSW,248,13.0,23.0,37,0.00,,---,0.00,VWS V14.01,2013-05-12 20:39:00,
2013-05-12 16:44:00,52.0,25.9,29.70,WNW,292,9.0,25.0,36,0.00,,---,0.00,VWS V14.01,2013-05-12 20:44:00,
2013-05-12 16:49:00,52.0,25.9,29.70,WNW,297,18.0,23.0,36,0.00,,---,0.00,VWS V14.01,2013-05-12 20:49:00,
2013-05-12 16:54:00,52.3,26.8,29.70,SW,235,5.0,20.0,37,0.00,,---,0.00,VWS V14.01,2013-05-12 20:54:00,
2013-05-12 16:59:00,52.3,24.8,29.71,West,269,11.0,22.0,34,0.00,,---,0.00,VWS V14.01,2013-05-12 20:59:00,
2013-05-12 17:04:00,51.1,25.8,29.71,WNW,282,7.0,19.0,37,0.00,,---,0.00,VWS V14.01,2013-05-12 21:04:00,
2013-05-12 17:09:00,51.6,26.2,29.71,NW,326,13.0,19.0,37,0.00,,---,0.00,VWS V14.01,2013-05-12 21:09:00,
2013-05-12 17:14:00,51.8,28.3,29.71,West,268,12.0,17.0,40,0.00,,---,0.00,VWS V14.01,2013-05-12 21:14:00,
2013-05-12 17:19:00,51.4,25.4,29.71,WNW,301,12.0,15.0,36,0.00,,---,0.00,VWS V14.01,2013-05-12 21:19:00,
2013-05-12 17:24:00,50.9,26.2,29.71,WNW,295,8.0,15.0,38,0.00,,---,0.00,VWS V14.01,2013-05-12 21:24:00,
2013-05-12 17:29:00,51.4,26.7,29.71,WNW,302,16.0,18.0,38,0.00,,---,0.00,VWS V14.01,2013-05-12 21:29:00,
2013-05-12 17:34:00,51.7,26.3,29.71,WNW,284,10.0,18.0,37,0.00,,---,0.00,VWS V14.01,2013-05-12 21:34:00,
2013-05-12 17:39:00,50.9,24.9,29.71,WNW,291,6.0,19.0,36,0.00,,---,0.00,VWS V14.01,2013-05-12 21:39:00,
2013-05-12 17:44:00,51.0,25.7,29.72,WNW,298,12.0,22.0,37,0.00,,---,0.00,VWS V14.01,2013-05-12 21:44:00,
2013-05-12 17:49:00,51.5,26.1,29.72,NW,312,11.0,18.0,37,0.00,,---,0.00,VWS V14.01,2013-05-12 21:49:00,
2013-05-12 17:54:00,51.6,26.8,29.72,WNW,298,16.0,20.0,38,0.00,,---,0.00,VWS V14.01,2013-05-12 21:54:00,
2013-05-12 17:59:00,51.1,26.4,29.72,NW,322,12.0,24.0,38,0.00,,---,0.00,VWS V14.01,2013-05-12 21:59:00,
2013-05-12 18:04:00,51.0,27.5,29.72,West,271,7.0,18.0,40,0.00,,---,0.00,VWS V14.01,2013-05-12 22:04:00,
2013-05-12 18:09:00,51.0,27.5,29.72,WNW,297,10.0,24.0,40,0.00,,---,0.00,VWS V14.01,2013-05-12 22:09:00,
2013-05-12 18:14:00,50.6,27.8,29.73,WNW,294,9.0,20.0,41,0.00,,---,0.00,VWS V14.01,2013-05-12 22:14:00,
2013-05-12 18:19:00,49.7,27.0,29.73,WNW,286,9.0,22.0,41,0.00,,---,0.00,VWS V14.01,2013-05-12 22:19:00,
2013-05-12 18:24:00,49.4,27.3,29.73,WNW,302,9.0,15.0,42,0.00,,---,0.00,VWS V14.01,2013-05-12 22:24:00,
2013-05-12 18:29:00,48.8,27.3,29.73,West,267,9.0,19.0,43,0.00,,---,0.00,VWS V14.01,2013-05-12 22:29:00,
2013-05-12 18:34:00,48.3,28.0,29.73,West,274,8.0,16.0,45,0.00,,---,0.00,VWS V14.01,2013-05-12 22:34:00,
2013-05-12 18:39:00,47.9,27.6,29.74,NW,306,10.0,15.0,45,0.00,,---,0.00,VWS V14.01,2013-05-12 22:39:00,
2013-05-12 18:44:00,47.6,28.4,29.74,WNW,300,8.0,11.0,47,0.00,,---,0.00,VWS V14.01,2013-05-12 22:44:00,
2013-05-12 18:49:00,47.5,28.3,29.74,WNW,286,9.0,12.0,47,0.00,,---,0.00,VWS V14.01,2013-05-12 22:49:00,
2013-05-12 18:54:00,47.4,27.7,29.74,WNW,290,6.0,19.0,46,0.00,,---,0.00,VWS V14.01,2013-05-12 22:54:00,
2013-05-12 18:59:00,47.2,27.5,29.75,WNW,292,11.0,18.0,46,0.00,,---,0.00,VWS V14.01,2013-05-12 22:59:00,
2013-05-12 19:04:00,46.9,26.7,29.75,WNW,282,11.0,23.0,45,0.00,,---,0.00,VWS V14.01,2013-05-12 23:04:00,
2013-05-12 19:09:00,46.7,27.0,29.76,NW,311,12.0,26.0,46,0.00,,---,0.00,VWS V14.01,2013-05-12 23:09:00,
2013-05-12 19:14:00,46.1,27.5,29.76,West,278,20.0,24.0,48,0.00,,---,0.00,VWS V14.01,2013-05-12 23:14:00,
2013-05-12 19:19:00,45.6,28.0,29.76,SW,225,8.0,29.0,50,0.00,,---,0.00,VWS V14.01,2013-05-12 23:19:00,
2013-05-12 19:24:00,45.8,27.2,29.76,WSW,249,9.0,16.0,48,0.00,,---,0.00,VWS V14.01,2013-05-12 23:24:00,
2013-05-12 19:29:00,45.9,27.3,29.76,NW,304,9.0,15.0,48,0.00,,---,0.00,VWS V14.01,2013-05-12 23:29:00,
2013-05-12 19:34:00,45.7,26.6,29.76,WNW,291,11.0,18.0,47,0.00,,---,0.00,VWS V14.01,2013-05-12 23:34:00,
2013-05-12 19:39:00,45.4,26.4,29.76,West,273,8.0,21.0,47,0.00,,---,0.00,VWS V14.01,2013-05-12 23:39:00,
2013-05-12 19:44:00,45.0,27.0,29.77,WNW,290,9.0,18.0,49,0.00,,---,0.00,VWS V14.01,2013-05-12 23:44:00,
2013-05-12 19:49:00,44.4,26.5,29.77,WNW,283,10.0,16.0,49,0.00,,---,0.00,VWS V14.01,2013-05-12 23:49:00,
2013-05-12 19:54:00,43.9,27.0,29.77,WSW,249,6.0,12.0,51,0.00,,---,0.00,VWS V14.01,2013-05-12 23:54:00,
2013-05-12 19:59:00,43.5,27.1,29.78,WNW,287,15.0,15.0,52,0.00,,---,0.00,VWS V14.01,2013-05-12 23:59:00,
2013-05-12 20:04:00,43.2,26.8,29.78,West,276,10.0,16.0,52,0.00,,---,0.00,VWS V14.01,2013-05-13 00:04:00,
2013-05-12 20:09:00,43.1,27.1,29.78,WNW,300,7.0,14.0,53,0.00,,---,0.00,VWS V14.01,2013-05-13 00:09:00,
2013-05-12 20:14:00,42.8,27.3,29.78,West,260,5.0,13.0,54,0.00,,---,0.00,VWS V14.01,2013-05-13 00:14:00,
2013-05-12 20:19:00,42.6,27.6,29.78,WNW,290,6.0,12.0,55,0.00,,---,0.00,VWS V14.01,2013-05-13 00:19:00,
2013-05-12 20:24:00,42.4,27.8,29.79,WNW,292,10.0,11.0,56,0.00,,---,0.00,VWS V14.01,2013-05-13 00:24:00,
2013-05-12 20:29:00,42.1,28.0,29.79,WSW,258,6.0,13.0,57,0.00,,---,0.00,VWS V14.01,2013-05-13 00:29:00,
2013-05-12 20:34:00,41.9,28.2,29.79,West,269,7.0,11.0,58,0.00,,---,0.00,VWS V14.01,2013-05-13 00:34:00,
2013-05-12 20:39:00,41.8,28.5,29.79,WNW,297,5.0,8.0,59,0.00,,---,0.00,VWS V14.01,2013-05-13 00:39:00,
2013-05-12 20:44:00,41.6,28.8,29.80,WNW,295,5.0,13.0,60,0.00,,---,0.00,VWS V14.01,2013-05-13 00:44:00,
2013-05-12 20:49:00,41.6,28.8,29.80,WNW,288,6.0,14.0,60,0.00,,---,0.00,VWS V14.01,2013-05-13 00:49:00,
2013-05-12 20:54:00,41.4,29.0,29.80,WNW,285,4.0,10.0,61,0.00,,---,0.00,VWS V14.01,2013-05-13 00:54:00,
2013-05-12 20:59:00,41.1,29.1,29.80,West,273,2.0,9.0,62,0.00,,---,0.00,VWS V14.01,2013-05-13 00:59:00,
2013-05-12 21:04:00,41.1,29.1,29.80,WNW,284,6.0,9.0,62,0.00,,---,0.00,VWS V14.01,2013-05-13 01:04:00,
2013-05-12 21:09:00,41.2,29.6,29.80,WSW,250,7.0,14.0,63,0.00,,---,0.00,VWS V14.01,2013-05-13 01:09:00,
2013-05-12 21:14:00,41.2,29.6,29.81,WNW,293,7.0,12.0,63,0.00,,---,0.00,VWS V14.01,2013-05-13 01:14:00,
2013-05-12 21:19:00,41.2,29.6,29.81,SW,231,3.0,10.0,63,0.00,,---,0.00,VWS V14.01,2013-05-13 01:19:00,
2013-05-12 21:24:00,41.2,30.0,29.81,West,281,3.0,11.0,64,0.00,,---,0.00,VWS V14.01,2013-05-13 01:24:00,
2013-05-12 21:29:00,40.8,29.6,29.81,West,266,2.0,5.0,64,0.00,,---,0.00,VWS V14.01,2013-05-13 01:29:00,
2013-05-12 21:34:00,40.5,29.7,29.81,West,277,4.0,6.0,65,0.00,,---,0.00,VWS V14.01,2013-05-13 01:34:00,
2013-05-12 21:39:00,40.2,29.8,29.81,West,271,3.0,6.0,66,0.00,,---,0.00,VWS V14.01,2013-05-13 01:39:00,
2013-05-12 21:44:00,39.9,29.9,29.81,West,259,8.0,8.0,67,0.00,,---,0.00,VWS V14.01,2013-05-13 01:44:00,
2013-05-12 21:49:00,39.9,29.9,29.81,WNW,292,6.0,7.0,67,0.00,,---,0.00,VWS V14.01,2013-05-13 01:49:00,
2013-05-12 21:54:00,39.6,29.9,29.81,WNW,292,5.0,8.0,68,0.00,,---,0.00,VWS V14.01,2013-05-13 01:54:00,
2013-05-12 21:59:00,39.7,30.0,29.82,WNW,283,4.0,8.0,68,0.00,,---,0.00,VWS V14.01,2013-05-13 01:59:00,
2013-05-12 22:04:00,39.7,29.7,29.82,WNW,290,6.0,9.0,67,0.00,,---,0.00,VWS V14.01,2013-05-13 02:04:00,
2013-05-12 22:09:00,39.8,29.4,29.82,West,278,4.0,11.0,66,0.00,,---,0.00,VWS V14.01,2013-05-13 02:09:00,
2013-05-12 22:14:00,39.9,29.1,29.82,WNW,284,7.0,10.0,65,0.00,,---,0.00,VWS V14.01,2013-05-13 02:14:00,
2013-05-12 22:19:00,39.9,29.1,29.82,WNW,290,9.0,11.0,65,0.00,,---,0.00,VWS V14.01,2013-05-13 02:19:00,
2013-05-12 22:24:00,39.7,28.9,29.82,WNW,294,2.0,9.0,65,0.00,,---,0.00,VWS V14.01,2013-05-13 02:24:00,
2013-05-12 22:29:00,39.2,29.2,29.82,NW,318,4.0,6.0,67,0.00,,---,0.00,VWS V14.01,2013-05-13 02:29:00,
2013-05-12 22:34:00,38.7,29.4,29.83,NW,314,5.0,7.0,69,0.00,,---,0.00,VWS V14.01,2013-05-13 02:34:00,
2013-05-12 22:39:00,38.4,29.8,29.82,West,281,2.0,7.0,71,0.00,,---,0.00,VWS V14.01,2013-05-13 02:39:00,
2013-05-12 22:44:00,38.1,29.9,29.82,WNW,291,3.0,6.0,72,0.00,,---,0.00,VWS V14.01,2013-05-13 02:44:00,
2013-05-12 22:49:00,37.8,30.3,29.82,WNW,297,2.0,5.0,74,0.00,,---,0.00,VWS V14.01,2013-05-13 02:49:00,
2013-05-12 22:54:00,37.4,29.9,29.83,NW,307,1.0,3.0,74,0.00,,---,0.00,VWS V14.01,2013-05-13 02:54:00,
2013-05-12 22:59:00,36.8,29.6,29.83,North,356,1.0,2.0,75,0.00,,---,0.00,VWS V14.01,2013-05-13 02:59:00,
2013-05-12 23:04:00,36.2,29.7,29.83,WNW,301,0.0,3.0,77,0.00,,---,0.00,VWS V14.01,2013-05-13 03:04:00,
2013-05-12 23:09:00,35.8,29.6,29.83,NW,305,5.0,6.0,78,0.00,,---,0.00,VWS V14.01,2013-05-13 03:09:00,
2013-05-12 23:14:00,35.9,30.0,29.83,NE,35,4.0,6.0,79,0.00,,---,0.00,VWS V14.01,2013-05-13 03:14:00,
2013-05-12 23:19:00,35.9,30.6,29.83,NNW,328,6.0,10.0,81,0.00,,---,0.00,VWS V14.01,2013-05-13 03:19:00,
2013-05-12 23:24:00,35.8,30.9,29.83,West,278,2.0,8.0,82,0.00,,---,0.00,VWS V14.01,2013-05-13 03:24:00,
2013-05-12 23:29:00,35.7,30.8,29.83,NW,305,2.0,7.0,82,0.00,,---,0.00,VWS V14.01,2013-05-13 03:29:00,
2013-05-12 23:34:00,35.5,30.9,29.83,NW,309,4.0,6.0,83,0.00,,---,0.00,VWS V14.01,2013-05-13 03:34:00,
2013-05-12 23:39:00,35.3,31.0,29.83,NW,317,2.0,4.0,84,0.00,,---,0.00,VWS V14.01,2013-05-13 03:39:00,
2013-05-12 23:44:00,35.0,30.7,29.83,NW,307,2.0,3.0,84,0.00,,---,0.00,VWS V14.01,2013-05-13 03:44:00,
2013-05-12 23:49:00,34.8,30.5,29.83,WNW,294,0.0,2.0,84,0.00,,---,0.00,VWS V14.01,2013-05-13 03:49:00,
2013-05-12 23:54:00,34.6,30.3,29.83,West,277,0.0,1.0,84,0.00,,---,0.00,VWS V14.01,2013-05-13 03:54:00,
2013-05-12 23:59:00,34.1,30.1,29.83,West,281,0.0,1.0,85,0.00,,---,0.00,VWS V14.01,2013-05-13 03:59:00,